,

(GMT )
Al Udeid

Weather History for KQIR - September, 2013

Change the Weather History Date:

Thursday, September 5, 2013

  Actual Average Record
Temperature  
Mean Temperature 96 °F -  
Max Temperature 108 °F - - ()
Min Temperature 84 °F - - ()
Cooling Degree Days 31    
Growing Degree Days 46 (Base 50)    
Moisture  
Dew Point 71 °F    
Average Humidity 50    
Maximum Humidity 83    
Minimum Humidity 17    
Precipitation  
Precipitation 0.00 in - - ()
Sea Level Pressure  
Sea Level Pressure 29.53 in    
Wind  
Wind Speed 5 mph ()    
Max Wind Speed 16 mph    
Max Gust Speed 21 mph    
Visibility 6.2 miles    
Events      
Averages and records for this station are not official NWS values.
T = Trace of Precipitation, MM = Missing Value Source: Averaged Metar Reports

Daily Weather History Graph

Daily Weather History Graph

Search for Another Location

Airport or City:

Trip Planner

Search our weather history database for the weather conditions in past years. The results will help you decide how hot, cold, wet, or windy it might be!

Date:

Astronomy

Sep. 05, 2013 Rise Set
Actual Time 5:16 AM +03 5:49 PM +03
Civil Twilight 4:53 AM +03 6:12 PM +03
Nautical Twilight 4:26 AM +03 6:39 PM +03
Astronomical Twilight 3:59 AM +03 7:07 PM +03
Moon 5:01 AM +03 (9/5) 5:35 PM +03 (9/5)
Length of Visible Light 13h 18m
Length of Day
12h 32m
Waning Crescent, 0% of the Moon is Illuminated
Sep 5
Waning Crescent
Sep 5
New
Sep 12
First Quarter
Sep 19
Full
Sep 27
Last Quarter

Hourly Weather History & Observations

Time (+03) Temp. Heat Index Dew Point Humidity Pressure Visibility Wind Dir Wind Speed Gust Speed Precip Events Conditions
12:55 AM 91.0 °F 112.2 °F 81.7 °F 74% 29.54 in 6.2 mi ESE 6.9 mph - N/A   Clear
1:55 AM 90.0 °F 110.1 °F 81.3 °F 76% 29.52 in 6.2 mi ESE 4.6 mph - N/A   Clear
2:55 AM 87.3 °F 103.2 °F 80.1 °F 79% 29.52 in 6.2 mi Calm Calm - N/A   Clear
3:55 AM 85.8 °F 98.3 °F 78.3 °F 78% 29.53 in 6.2 mi Calm Calm - N/A   Clear
4:55 AM 84.9 °F 97.5 °F 78.8 °F 82% 29.54 in 6.2 mi South 3.5 mph - N/A   Clear
5:55 AM 86.0 °F 101.4 °F 80.4 °F 83% 29.55 in 6.2 mi SE 4.6 mph - N/A   Clear
6:55 AM 88.5 °F 104.7 °F 79.9 °F 75% 29.56 in 6.2 mi SSE 8.1 mph - N/A   Clear
7:55 AM 95.0 °F 103.8 °F 72.5 °F 48% 29.56 in 6.2 mi SSE 10.4 mph - N/A   Clear
8:55 AM 100.8 °F 101.3 °F 59.9 °F 26% 29.56 in 6.2 mi South 8.1 mph - N/A   Clear
9:55 AM 104.4 °F 103.4 °F 56.1 °F 20% 29.57 in 6.2 mi Calm Calm - N/A   Partly Cloudy
10:55 AM 105.8 °F 103.7 °F 53.2 °F 17% 29.56 in 6.2 mi SSW 3.5 mph - N/A   Partly Cloudy
11:55 AM 106.2 °F 109.7 °F 63.1 °F 25% 29.54 in 6.2 mi SSE 8.1 mph - N/A   Partly Cloudy
12:55 PM 108.0 °F 108.8 °F 58.3 °F 20% 29.51 in 6.2 mi Calm Calm - N/A   Partly Cloudy
1:55 PM 108.9 °F 111.9 °F 62.4 °F 22% 29.48 in 6.2 mi NNE 10.4 mph - N/A   Clear
2:55 PM 107.1 °F 112.1 °F 65.5 °F 26% 29.47 in 6.2 mi East 15.0 mph - N/A   Clear
3:55 PM 102.0 °F 116.8 °F 75.9 °F 43% 29.47 in 6.2 mi East 16.1 mph - N/A   Clear
4:55 PM 100.4 °F 107.8 °F 69.4 °F 37% 29.48 in 6.2 mi East 15.0 mph - N/A   Clear
5:55 PM 99.0 °F 102.3 °F 64.9 °F 33% 29.49 in 6.2 mi East 10.4 mph 20.7 mph N/A   Clear
6:55 PM 96.1 °F 105.6 °F 72.7 °F 47% 29.51 in 6.2 mi East 9.2 mph - N/A   Clear
7:55 PM 94.3 °F 105.6 °F 75.0 °F 53% 29.53 in 6.2 mi East 8.1 mph - N/A   Clear
8:55 PM 92.7 °F 105.0 °F 76.1 °F 58% 29.55 in 6.2 mi East 3.5 mph - N/A   Clear
9:55 PM 92.3 °F 106.9 °F 77.5 °F 62% 29.55 in 6.2 mi NNE 3.5 mph - N/A   Clear
10:55 PM 92.1 °F 105.0 °F 76.6 °F 60% 29.55 in 6.2 mi NE 5.8 mph - N/A   Clear
11:55 PM 88.0 °F 95.6 °F 73.0 °F 61% 29.54 in 6.2 mi WNW 3.5 mph - N/A   Clear